Overview Statistics Trail Chart Weather Telemetry Raw packets
 

This is the latest recevied weather packets stored in our database for station/object K7DC. If no packets are shown the sender has not sent any weather packets the latest 10 day(s).

<< 60 61 62 63 64 65 66 >>
Time Temp. Humidity Pressure Rain* Wind** Luminosity Snow
1788221062 27.78° C 56% 1015.1 hPa 0 mm - 96 W/m² -
1788220761 27.78° C 57% 1015.1 hPa 0 mm - 108 W/m² -
1788220457 27.78° C 56% 1015.1 hPa 0 mm - 110 W/m² -
1788220152 27.78° C 56% 1015.1 hPa 0 mm - 102 W/m² -
1788219852 27.78° C 56% 1015 hPa 0 mm - 145 W/m² -
1788219547 28.89° C 54% 1015.1 hPa 0 mm - 218 W/m² -
1788219242 29.44° C 51% 1015.1 hPa 0 mm - 199 W/m² -
1788218938 28.89° C 56% 1015.3 hPa 0 mm - 212 W/m² -
1788218634 28.89° C 54% 1015.3 hPa 0 mm - 168 W/m² -
1788218329 28.89° C 52% 1015.2 hPa 0 mm - 211 W/m² -
1788218026 29.44° C 52% 1015.6 hPa 0 mm - 278 W/m² -
1788217721 30° C 52% 1015.5 hPa 0 mm - 261 W/m² -
1788217416 30.56° C 50% 1015.6 hPa 0 mm - 216 W/m² -
1788217116 30° C 53% 1015.6 hPa 0 mm - 294 W/m² -
1788216810 30° C 52% 1015.6 hPa 0 mm - 347 W/m² -
1788216506 28.89° C 55% 1015.8 hPa 0 mm - 316 W/m² -
1788216201 27.78° C 60% 1015.8 hPa 0 mm - 381 W/m² -
1788215895 28.33° C 58% 1015.7 hPa 0 mm - 434 W/m² -
1788215592 27.78° C 58% 1016.1 hPa 0 mm - 472 W/m² -
1788215289 26.67° C 65% 1016.1 hPa 0 mm - 587 W/m² -
1788214984 25° C 72% 1016.4 hPa 0 mm - 849 W/m² -
1788214679 24.44° C 73% 1016.5 hPa 0 mm - 519 W/m² -
1788214374 24.44° C 73% 1016.7 hPa 0 mm - 301 W/m² -
1788214074 23.89° C 78% 1016.6 hPa 0 mm - 286 W/m² -
1788213770 23.33° C 81% 1016.6 hPa 0 mm - 265 W/m² -

* Rain latest hour (hover to see other rain measurements)
** Current wind speed in m/s (hover to see current wind gust speed)